KLM615 EHAM-KPDX

Flight info

Callsign KLM615
Flight time N/A
Altitude 36000
Route BERGI M90 LONAM DCT BEKET DCT OSBON/M085F360 DCT 63N010W 6630N02000W 70N030W 72N040W 73N060W/M084F380 DCT MEDPA/N0490F380 DCT 7130N08000W 69N090W 65N100W 60N110W 55N116W/N0479F400 DCT LONRO DCT YDC J503 SEA DCT BUWZO KRATR3
Aircraft B789/H-SDE1E2E3FGHIJ2J3J4J5M1RWXY/LB1D1

Departure

Time 2026-05-03 22:27
Airport Amsterdam Airport Schiphol (EHAM)

Arrival

Time N/A
Airport Portland International Airport (KPDX)
Time Latitude Longitude Altitude Speed Heading
2026-05-03 21:54 52.30794 4.76717 4 ft 0 kts 340°
2026-05-03 22:17 52.30776 4.76727 4 ft 2 kts 340°
2026-05-03 22:17 52.30755 4.76739 5 ft 4 kts 340°
2026-05-03 22:17 52.30734 4.76752 6 ft 4 kts 349°
2026-05-03 22:18 52.30711 4.76748 6 ft 2 kts 27°
2026-05-03 22:18 52.30691 4.76732 5 ft 4 kts 11°
2026-05-03 22:18 52.30670 4.76736 8 ft 3 kts 329°
2026-05-03 22:18 52.30648 4.76759 6 ft 4 kts 326°
2026-05-03 22:19 52.30630 4.76779 7 ft 4 kts 321°
2026-05-03 22:19 52.30612 4.76810 6 ft 4 kts 301°
2026-05-03 22:19 52.30602 4.76841 4 ft 3 kts 295°
2026-05-03 22:19 52.30593 4.76877 5 ft 3 kts 317°
2026-05-03 22:20 52.30577 4.76899 7 ft 4 kts 329°
2026-05-03 22:20 52.30557 4.76917 6 ft 0 kts 328°
2026-05-03 22:22 52.30559 4.76915 6 ft 2 kts 328°
2026-05-03 22:22 52.30585 4.76889 4 ft 7 kts 328°
2026-05-03 22:22 52.30637 4.76864 4 ft 7 kts 15°
2026-05-03 22:23 52.30654 4.76918 4 ft 8 kts 82°
2026-05-03 22:23 52.30651 4.77046 4 ft 12 kts 93°
2026-05-03 22:23 52.30646 4.77188 4 ft 12 kts 93°
2026-05-03 22:23 52.30641 4.77349 4 ft 15 kts 93°
2026-05-03 22:24 52.30617 4.77496 4 ft 12 kts 141°
2026-05-03 22:24 52.30545 4.77564 4 ft 12 kts 152°
2026-05-03 22:24 52.30520 4.77585 4 ft 0 kts 152°
2026-05-03 22:25 52.30502 4.77602 4 ft 6 kts 152°
2026-05-03 22:25 52.30451 4.77645 4 ft 10 kts 154°
2026-05-03 22:25 52.30406 4.77622 4 ft 6 kts 228°
2026-05-03 22:25 52.30389 4.77576 3 ft 2 kts 239°
2026-05-03 22:26 52.30388 4.77572 3 ft 0 kts 239°
2026-05-03 22:26 52.30381 4.77554 3 ft 6 kts 239°
2026-05-03 22:26 52.30321 4.77395 2 ft 39 kts 238°
2026-05-03 22:26 52.30063 4.76727 3 ft 98 kts 238°
2026-05-03 22:27 52.29605 4.75534 4 ft 148 kts 238°
2026-05-03 22:27 52.28974 4.73904 27 ft 189 kts 237°
2026-05-03 22:27 52.28263 4.72125 702 ft 182 kts 236°
2026-05-03 22:27 52.27566 4.70420 1383 ft 179 kts 238°
2026-05-03 22:28 52.26780 4.68736 1551 ft 198 kts 226°
2026-05-03 22:28 52.25713 4.67175 1763 ft 214 kts 223°
2026-05-03 22:28 52.24602 4.65434 2015 ft 228 kts 228°
2026-05-03 22:28 52.23937 4.63000 2187 ft 244 kts 255°
2026-05-03 22:29 52.23440 4.60345 2740 ft 249 kts 250°
2026-05-03 22:29 52.23181 4.57523 3250 ft 256 kts 278°
2026-05-03 22:29 52.23742 4.54830 3935 ft 258 kts 299°
2026-05-03 22:29 52.25036 4.52786 4593 ft 262 kts 322°
2026-05-03 22:30 52.26578 4.51189 5276 ft 264 kts 326°
2026-05-03 22:30 52.28190 4.49659 5741 ft 273 kts 327°
2026-05-03 22:30 52.29839 4.48052 6040 ft 278 kts 326°
2026-05-03 22:30 52.31475 4.46407 6778 ft 274 kts 325°
2026-05-03 22:31 52.33107 4.44767 7403 ft 276 kts 325°
2026-05-03 22:31 52.34755 4.43124 7976 ft 279 kts 325°
2026-05-03 22:31 52.36573 4.41922 8339 ft 293 kts 351°
2026-05-03 22:31 52.38604 4.41799 8981 ft 291 kts 353°
2026-05-03 22:32 52.40619 4.41411 9552 ft 293 kts 349°
2026-05-03 22:32 52.42652 4.40981 10079 ft 296 kts 351°
2026-05-03 22:32 52.44743 4.40652 10365 ft 310 kts 352°
2026-05-03 22:32 52.46941 4.40344 10576 ft 325 kts 352°
2026-05-03 22:33 52.49237 4.39989 10775 ft 339 kts 352°
2026-05-03 22:33 52.51619 4.39598 11148 ft 347 kts 352°
2026-05-03 22:33 52.54037 4.39211 11674 ft 351 kts 352°
2026-05-03 22:33 52.56475 4.38829 12205 ft 354 kts 352°
2026-05-03 22:34 52.58942 4.38440 12727 ft 357 kts 352°
2026-05-03 22:34 52.61423 4.38043 13249 ft 360 kts 352°
2026-05-03 22:34 52.63931 4.37642 13775 ft 363 kts 352°
2026-05-03 22:34 52.66456 4.37240 14224 ft 366 kts 352°
2026-05-03 22:35 52.69003 4.36834 14687 ft 369 kts 352°
2026-05-03 22:35 52.71565 4.36424 15165 ft 371 kts 352°
2026-05-03 22:35 52.74112 4.36015 15615 ft 373 kts 351°
2026-05-03 22:35 52.76664 4.35240 15993 ft 374 kts 343°
2026-05-03 22:36 52.79206 4.34254 16433 ft 377 kts 344°
2026-05-03 22:36 52.81771 4.33316 16875 ft 379 kts 345°
2026-05-03 22:36 52.84357 4.32369 17310 ft 382 kts 344°
2026-05-03 22:36 52.86957 4.31392 17739 ft 384 kts 344°
2026-05-03 22:37 52.89573 4.30401 18157 ft 387 kts 344°
2026-05-03 22:37 52.92208 4.29413 18520 ft 390 kts 344°
2026-05-03 22:37 52.94860 4.28423 18919 ft 392 kts 344°
2026-05-03 22:37 52.97525 4.27423 19308 ft 393 kts 344°
2026-05-03 22:38 53.00199 4.26414 19676 ft 395 kts 344°
2026-05-03 22:38 53.02893 4.25398 20030 ft 398 kts 344°
2026-05-03 22:38 53.05602 4.24376 20384 ft 400 kts 344°
2026-05-03 22:38 53.08322 4.23349 20734 ft 402 kts 344°
2026-05-03 22:39 53.11061 4.22313 21075 ft 405 kts 344°
2026-05-03 22:39 53.13812 4.21273 21405 ft 407 kts 344°
2026-05-03 22:39 53.16576 4.20226 21743 ft 409 kts 344°
2026-05-03 22:39 53.19356 4.19171 22088 ft 411 kts 343°
2026-05-03 22:40 53.21207 4.18468 22318 ft 412 kts 343°
2026-05-03 22:40 53.24012 4.17401 22646 ft 414 kts 343°
2026-05-03 22:40 53.26827 4.16329 22962 ft 416 kts 343°
2026-05-03 22:40 53.29661 4.15249 23265 ft 419 kts 343°
2026-05-03 22:41 53.32505 4.14163 23564 ft 421 kts 343°
2026-05-03 22:41 53.35366 4.13069 23834 ft 423 kts 343°
2026-05-03 22:41 53.38241 4.11968 24087 ft 425 kts 343°
2026-05-03 22:41 53.41129 4.10861 24335 ft 426 kts 343°
2026-05-03 22:42 53.44024 4.09749 24588 ft 428 kts 343°
2026-05-03 22:42 53.46939 4.08629 24835 ft 430 kts 343°
2026-05-03 22:42 53.49865 4.07502 25071 ft 432 kts 343°
2026-05-03 22:42 53.52799 4.06371 25309 ft 434 kts 343°
2026-05-03 22:43 53.55750 4.05231 25553 ft 436 kts 343°
2026-05-03 22:43 53.58709 4.04086 25791 ft 438 kts 343°
2026-05-03 22:43 53.61681 4.02934 26027 ft 439 kts 343°
2026-05-03 22:43 53.64670 4.01774 26261 ft 441 kts 343°
2026-05-03 22:44 53.67627 4.00625 26503 ft 443 kts 343°
2026-05-03 22:44 53.70636 3.99455 26761 ft 444 kts 342°
2026-05-03 22:44 53.73650 3.98280 27018 ft 445 kts 342°
2026-05-03 22:44 53.76675 3.97099 27250 ft 447 kts 342°